www.pogodaiklimat.ru

Погода и климат >> Архив погоды >> Россия >> Краснодарский край >> Белореченск


ПОГОДА в Белореченске

  • Прогноз погоды в Белореченске
  • Монитор погоды в Белореченске

АРХИВ ПОГОДЫ в Белореченске

Время (UTC), дата Ветер
(напр.,м/с)
 
Видим.   Явления Облачность Т
(С)
Тd
(С)
f
(%)
Тe
(С)
Тes
(С)
Комфортность P
(гПа)
Po
(гПа)
Тmin
(С)
Tmax
(С)
R
(мм)
R24
(мм)
S
(см)
00 17.01 В 1 10 км 8/0
[As op Cs]
-2.5 -4.2 88 -5 -5 1013.6 996.7
03 17.01 В 1 10 км 3/0
[Ci fib]
-4.7 -5.9 91 -7 -7 1014.8 997.8 -4.7 4
06 17.01 ЮВ 1 20 км 8/0
[Ac trans]
-3.8 -5.4 89 -6 -6 1016.6 999.6 -5.5
09 17.01 В 1 20 км 3/0
[Cs]
+1.9 -5.0 60 +1 +5 1017.5 1000.8
12 17.01 СВ 2 20 км 1/0
[Ci sp]
+3.2 -5.4 53 +1 +3 1018.0 1001.4
15 17.01 В 1 10 км ясно -0.3 -4.0 76 -2 -2 1020.1 1003.3 +3.6
18 17.01 ЮВ 1 10 км ясно -3.6 -5.3 88 -6 -6 1021.7 1004.6
21 17.01 ЮВ 1 10 км ясно -5.1 -6.1 93 -8 -8 1022.8 1005.6
00 18.01 ЮВ 1 10 км ясно -5.6 -6.8 91 -8 -8 1023.6 1006.4
03 18.01 ЮВ 2 10 км ясно -5.4 -7.4 86 -10 -10 1023.3 1006.0 -6.0 2
06 18.01 ЮВ 1 20 км 1/0
[Ci fib]
-3.2 -6.1 80 -5 -4 1023.6 1006.5
09 18.01 ЮВ 1 20 км 1/0
[Ci fib]
+5.2 -5.3 47 +5 +10 1022.7 1006.1
12 18.01 В 2 20 км 4/1 1000 м
[Cu hum Ci fib]
+7.6 -4.7 41 +6 +8 1021.0 1004.6
15 18.01 В 2 10 км 8/0
[Ci fib]
+2.7 -3.2 65 0 0 1021.7 1004.9 +8.7
18 18.01 ЮВ 1 10 км ясно -1.5 -4.3 81 -4 -4 1022.1 1005.1
21 18.01 ЮВ 1 10 км 3/0
[Ci fib]
-2.7 -4.5 87 -5 -5 1022.0 1004.9
00 19.01 ЮВ 2 10 км 9/0
[Ac lent Cc]
-2.5 -4.9 84 -6 -6 1021.3 1004.2
03 19.01 ЮВ 1 10 км 8/0
[Ci fib]
-4.4 -6.0 89 -7 -7 1021.0 1003.8 -4.4 <0.5
06 19.01 ЮВ 1 20 км 9/0
[Ac lent Ci]
-2.7 -5.4 82 -5 -4 1020.9 1003.8 -4.5
09 19.01 ЮВ 1 20 км 10/0
[Ac As Cs]
+3.1 -2.4 67 +2 +4 1020.7 1004.0
12 19.01 штиль 0 20 км 10/8 600 м
[Sc diur, vesp Ac As]
+5.7 -1.8 58 +5 +5 1019.2 1002.7
15 19.01 С 1 10 км 10/8 600 м
[Sc diur, vesp Ac As]
+4.6 -2.5 60 +4 +4 1019.4 1002.9 +7.1
18 19.01 ЮЗ 3 10 км 10/8 600 м
[Sc diur, vesp Ac As]
+6.1 -3.0 52 +3 +3 1020.0 1003.5
21 19.01 ЮЗ 2 10 км 10/0
[Ac As]
+5.4 -1.9 59 +3 +3 1020.9 1004.3
00 20.01 З 3 10 км 10/8 600 м
[Sc diur, vesp Ac As]
+3.4 +2.1 91 -1 -1 1023.0 1006.3
03 20.01 З 2 10 км слаб. ливневой дождь 10/10 600 м
[Cb cap]
+1.8 +0.6 92 -2 -2 1024.6 1007.8 +1.8 0.5
06 20.01 ЮЗ 1 2000 м слаб. морось 10/10 300 м
[St]
+1.1 +0.1 93 -1 -1 1025.4 1008.5 +1.1
09 20.01 В 1 500 м туман ?/? +1.7 +0.8 94 -0 -0 1025.3 1008.4
12 20.01 В 1 10 км {морось, туман} 10/10 300 м
[St]
+2.9 +1.2 89 +1 +1 1024.0 1007.2
15 20.01 В 1 10 км 10/4 1000 м
[Sc As op]
+2.2 +0.8 90 0 0 1023.6 1006.9 +3.3 0.4
18 20.01 штиль 0 4000 м дымка ясно -0.9 -1.8 94 -2 -2 1023.1 1006.1
21 20.01 ЮВ 1 10 км 8/0
[Ac trans]
-0.6 -1.5 94 -3 -3 1022.7 1005.8
00 21.01 ЮВ 1 10 км 6/0
[Ac trans]
-1.0 -1.9 94 -3 -3 1021.5 1004.6
03 21.01 ЮВ 2 10 км 3/0
[Ac trans]
-2.0 -2.9 94 -6 -6 1019.8 1002.8 -2.2
06 21.01 ЮВ 1 4000 м дымка 3/0
[Ac trans Ci fib]
-1.2 -2.1 94 -3 -2 1018.4 1001.5 -2.7
09 21.01 З 1 10 км 9/0
[Ac lent Cs]
+8.8 +2.1 63 +8 +12 1016.5 1000.2
12 21.01 СЗ 1 10 км 9/4 1000 м
[Sc Ac As Ci fib]
+10.9 +1.1 51 +11 +12 1014.6 998.5
15 21.01 Ю 1 10 км 10/8 1000 м
[Sc Ac As]
+6.5 -1.7 56 +6 +6 1014.0 997.6 +13.1
18 21.01 ЮЗ 2 10 км 9/4 1000 м
[Sc Ac As Cs]
+7.5 -4.1 44 +6 +6 1014.1 997.7
21 21.01 ЮЗ 6-11
{13}
10 км {ливн. осадки} 10/10 600 м
[Cb cap]
+8.2 -0.1 56 +5 +5 1014.5 998.2
00 22.01 З 2
{11}
10 км слаб. ливневой дождь 10/10 300 м
[Cb cap]
+5.2 +3.0 86 +3 +3 1016.2 999.8
03 22.01 З 2 10 км слаб. ливневой дождь 10/10 300 м
[Cb cap]
+3.6 +2.1 90 +1 +1 1017.0 1000.4 +3.6 0.5
06 22.01 СЗ 1 4000 м слаб. ливневой дождь 10/10 300 м
[Cb cap]
+2.4 +1.3 92 +1 +1 1018.8 1002.1 +2.4
09 22.01 С 2 1000 м слаб. ливневой дождь {туман} 10/10 300 м
[Cb cap]
+0.5 -0.4 94 -3 -3 1021.0 1004.2
12 22.01 С 2 1000 м слаб. ливневой снег {туман} 10/10 300 м
[Cb cap]
-0.4 -1.2 94 -4 -4 1021.5 1004.6
15 22.01 СВ 1 10 км слаб. ливневой снег 10/10 300 м
[Cb cap]
-0.8 -2.0 92 -3 -3 1022.3 1005.3 +3.5 4
18 22.01 СВ 1 10 км {ливн. осадки} 10/10 600 м
[Sc diur, vesp]
-1.0 -2.4 90 -3 -3 1022.4 1005.5
21 22.01 СВ 2 10 км 10/10 600 м
[Sc]
-0.8 -2.1 91 -5 -5 1022.2 1005.3
00 23.01 СВ 2 10 км 10/10 1000 м
[Sc]
-0.8 -2.1 91 -5 -5 1021.3 1004.4
03 23.01 В 2 10 км 10/8 1000 м
[Sc Ac As]
-0.3 -1.7 90 -4 -4 1020.0 1003.1 -1.0 0.0 <0.5
06 23.01 В 2 10 км 9/8 300 м
[St Ci fib]
+0.4 -1.4 88 -3 -3 1019.6 1002.8
09 23.01 В 2 10 км 10/10 300 м
[St]
+2.3 -0.5 82 -1 -1 1019.1 1002.4
12 23.01 СВ 3 20 км 8/6 300 м
[St Ci fib]
+4.1 +0.4 77 +1 +1 1016.9 1000.3
15 23.01 СВ 2 10 км 8/0
[]
+1.6 -0.8 84 -2 -2 1015.8 999.2 +4.2
18 23.01 В 2 10 км 10/0
[Cs]
+0.6 -1.2 88 -3 -3 1015.0 998.2

 

Местоположение метеостанции Белореченск (Краснодарский край, Россия): широта 44.75 долгота 39.90 высота над уровнем моря 139 м.

В архиве по умолчанию представлена погода в Белореченске за последнюю неделю. Архивные данные за месяц целиком и за предыдущие месяцы, начиная с января 2011 года, Вы можете получить, выбрав интересующий диапазон дат из раскрывающегося списка и нажав кнопку "Ввод!".


*Определитесь, кто Вы:
робот инопланетянин человек

Внимание! Время в таблицах - всемирное. Для получения местного времени необходимо прибавить поправку, которая равна 3 ч.

Смотрите также архив погоды в соседних городах и на ближайших метеорологических станциях:

Погода в Майкопе (Адыгея, Россия) (20 км)
Погода в Шунтуке (Адыгея, Россия) (36 км)
Погода в Дондуковской (Адыгея, Россия) (38 км)
Погода в Усть-Лабинске (Краснодарский край, Россия) (55 км)
Погода в Горячем Ключе (Краснодарский край, Россия) (65 км)
Погода в Лабинске (Краснодарский край, Россия) (68 км)
Погода в Даховской (Адыгея, Россия) (68 км)
Погода в Горном (Краснодарский край, Россия) (72 км)
Погода в Краснодаре (Краснодарский край, Россия) (76 км)
Погода в Гузерипле (Адыгея, Россия) (85 км)

Пояснения к столбцам:

Ветер - указаны скорость ветра в м/с - средняя за 10 мин, порывы в срок и между сроками (в фигурных скобках) и направление, откуда дует ветер: С - северный, СВ - северо-восточный, В - восточный, ЮВ - юго-восточный, Ю - южный, ЮЗ - юго-западный, З - западный, СЗ - северо-западный.
Видимость - горизонтальная дальность видимости в метрах или километрах. При видимости от 1 до 10 км при отсутствии осадков обычно наблюдается дымка, при ухудшении видимости до 1 км и менее - туман. В сухую погоду видимость может ухудшаться дымом, пылью или мглою.
Явления - указаны атмосферные явления, наблюдавшиеся в срок или в последний час перед сроком; фигурными скобками обозначены явления, наблюдавшиеся между сроками (за 1-3 часа до срока); квадратными скобками обозначены град или гололедные отложения с указанием их диаметра в мм.
Облачность - указаны через наклонную черту общая и нижняя облачность в баллах и высота нижней границы облаков в метрах; квадратными скобками обозначены формы облаков: Ci - перистые, Cs - перисто-слоистые, Cc - перисто-кучевые, Ac - высококучевые, As - высокослоистые, Sc - слоисто-кучевые, Ns - слоисто-дождевые, Cu - кучевые, Cb - кучево-дождевые. Подробнее классификацию облаков см. в Атласе облаков (PDF).
T - Температура воздуха - температура, измеренная на высоте 2 м над землей.
Td - Температура точки росы - температура, при понижении до которой содержащийся в воздухе водяной пар достигнет насыщения.
f - Относительная влажность воздуха - влажноcть воздуха, измеренная на высоте 2 м над землей.
Te - Эффективная температура - температура, которую ощущает одетый по сезону человек в тени. Характеристика душности погоды. При расчете учитывается влияние влажности воздуха и скорости ветра на теплоощущения человека.
Tes - Эффективная температура на солнце - температура, которую ощущает человек, с поправкой на солнечный нагрев. Характеристика знойности погоды. Зависит от высоты солнца над горизонтом, облачности и скорости ветра. Ночью, в пасмурную погоду, а также при ветре 12 м/с и более поправка равна нулю.
P - Атмосферное давление - приведенное к уровню моря атмосферное давление.
Po - Атмосферное давление - измеренное на уровне метеостанции атмосферное давление.
Tmin - Минимальная температура - минимум температуры воздуха на высоте 2 м над землей.
Tmax - Максимальная температура - максимум температуры воздуха на высоте 2 м над землей.
R - Количество осадков - Количество выпавших осадков за период времени, мм. При наведении курсора мыши на число - период времени, за который выпало указанное количество осадков.
R24 - Количество осадков - Количество выпавших осадков за 24 часа, мм.
S - Снежный покров - Высота снежного покрова, см. При наведении курсора мыши на число - состояние снежного покрова и степень покрытия местности в баллах.